Location: ?????????
(54.7630°N, 39.4991°E)
Time: 09:53:41
(UTC+00:00)

ALOS 2 - Pass Details

Date: 14 April 2026
Orbit: 630 x 632 km, 97.9° (Epoch: 19 May)

Event Time Altitude Azimuth Distance (km) Brightness Sun altitude
Exits shadow 21:54:09 20° 281° (W) 1,463 4.4 -25.2°
Drops below altitude 10° 21:56:55 10° 319° (NW) 2,027 5.7 -25.2°
Sets 21:59:37 0° 336° (NNW) 2,941 6.9 -25.1°
